Theta_e
325 329 328 327 329 330 330 333 335 337 338 344 345 346 345 343 341 340 339 337 336 335 333 330 329 328 327 323 321 319 318 318 320 323 323 323 323 323 323 321 320 320 319 319
326 328 326 325 327 330 333 336 338 338 340 342 343 342 338 344 345 345 342 339 338 338 337 333 331 330 328 327 325 324 321 318 318 321 321 320 321 322 322 321 320 320 320 319
328 327 325 325 329 334 336 337 337 338 340 340 337 339 337 341 345 346 345 343 343 342 342 339 334 332 330 327 326 326 326 322 318 320 321 321 320 322 323 323 322 321 320 320
327 326 325 327 329 333 336 332 335 338 340 341 336 339 340 342 343 342 344 345 345 344 343 342 340 335 331 327 328 331 333 325 323 318 320 322 323 323 323 322 322 321 320 320
329 327 327 327 327 331 335 336 338 339 342 340 342 341 338 341 341 339 338 337 337 337 336 335 335 335 330 328 330 334 332 329 324 320 318 323 323 323 323 322 321 321 321 320
326 323 325 327 331 334 335 336 335 336 337 338 341 344 339 340 339 340 339 338 337 335 336 336 335 333 330 329 330 336 333 329 325 323 318 320 322 324 323 323 322 322 322 321
328 327 324 325 333 334 334 338 337 337 336 337 338 345 340 340 337 339 338 338 336 335 337 336 334 333 331 331 331 334 334 330 327 326 321 319 320 321 322 322 322 322 323 322
329 327 326 326 334 336 336 337 337 339 336 335 335 341 336 336 335 337 337 337 336 337 338 336 335 334 333 332 333 335 332 331 328 326 323 320 318 322 323 322 321 322 322 321
330 328 325 333 332 334 337 339 334 340 335 337 335 336 335 336 338 338 338 337 337 339 339 337 335 334 334 333 334 334 334 331 330 327 325 322 320 321 322 321 321 322 320 320
330 329 325 330 333 334 336 333 339 337 339 337 335 339 338 338 340 338 339 338 337 338 339 337 336 335 334 334 334 335 333 330 331 329 326 325 322 321 322 322 322 321 321 321
327 332 328 330 334 335 337 339 337 337 339 338 340 336 337 337 341 338 338 337 336 335 339 339 336 335 335 335 335 333 333 331 330 329 327 325 324 323 323 322 322 322 322 321
327 334 331 330 330 330 333 336 339 337 339 339 341 341 333 340 338 337 337 336 334 333 335 338 337 336 336 335 335 332 333 333 332 330 328 326 325 325 324 323 323 322 322 321
334 339 338 336 334 332 335 336 335 338 340 346 341 337 335 340 339 337 337 336 333 333 335 335 336 336 336 335 334 333 333 334 333 331 328 327 327 326 324 323 323 322 322 321
337 335 338 331 334 333 337 335 336 339 342 340 339 338 337 338 340 339 337 336 334 335 336 336 335 334 335 336 335 334 333 333 333 329 327 327 327 323 322 322 322 321 320 320
336 338 335 333 331 335 336 335 336 338 338 340 337 338 338 340 340 337 337 335 333 334 337 337 336 335 336 336 335 334 333 331 329 328 326 326 322 321 321 321 321 321 320 321
335 339 338 337 335 337 337 334 337 336 336 336 337 340 340 339 337 338 336 334 333 335 337 336 336 336 335 335 333 332 330 329 327 326 324 322 323 324 323 322 321 321 323 324
341 344 342 339 336 335 334 336 339 340 341 342 342 340 341 340 339 338 334 334 333 334 337 336 335 335 335 335 334 332 330 326 326 326 326 326 325 324 323 323 325 325 323 322
344 344 341 340 340 337 334 338 338 340 341 342 342 341 339 340 338 334 333 334 334 335 337 336 334 334 333 332 330 328 326 326 327 326 324 324 325 327 326 324 322 320 320 321
340 344 343 342 339 336 336 338 338 338 339 342 341 339 339 336 336 336 334 333 333 337 336 334 333 332 330 329 327 327 327 327 327 329 328 326 324 321 320 319 319 319 320 317
336 337 339 339 340 339 338 339 336 335 342 337 340 341 341 338 339 339 335 335 337 336 334 333 331 330 329 327 327 330 330 329 326 323 319 318 318 318 317 317 316 317 316 314
341 341 343 340 343 340 335 337 337 343 343 339 341 342 341 341 341 338 335 334 335 336 333 330 330 329 329 330 331 330 328 325 321 317 316 316 316 313 311 312 314 315 314 314
341 343 344 343 344 340 337 341 341 343 342 342 342 341 340 338 335 338 336 335 335 335 330 329 328 329 328 329 329 327 325 319 316 314 314 314 311 312 313 314 313 313 315 314
341 340 340 343 339 341 337 342 340 341 342 341 341 339 337 336 335 335 337 337 334 333 329 327 327 326 325 326 326 324 320 315 313 314 313 312 311 313 313 315 315 313 313 311
336 336 342 342 339 338 338 338 338 338 340 340 338 337 337 337 336 336 337 336 335 331 329 327 325 323 321 320 319 319 314 311 313 313 312 312 314 314 314 313 312 312 311 310
337 339 342 341 338 336 337 337 336 336 336 335 335 336 335 338 338 336 334 333 333 330 328 324 323 320 316 313 316 315 312 311 313 312 312 313 313 314 313 311 311 311 310 309
336 342 340 338 338 338 338 336 335 335 335 334 335 336 336 336 336 333 333 332 331 329 327 323 321 318 313 311 313 313 311 311 312 313 313 312 312 312 312 312 311 309 309 308
Wind_Speed
2 2 5 6 6 6 5 6 5 3 3 6 11 18 19 12 12 16 15 15 17 18 20 11 11 14 13 11 7 5 4 7 8 4 4 5 8 7 8 9 9 8 6 6
1 1 3 6 2 4 4 3 2 1 2 7 6 14 11 4 7 12 15 17 19 19 15 12 13 16 17 16 11 4 5 6 7 7 7 6 4 5 8 9 11 11 9 8
1 4 4 3 3 1 1 2 2 2 2 2 11 3 3 1 6 7 11 15 16 17 18 16 21 21 20 17 10 3 11 8 7 9 8 8 6 7 7 9 10 11 11 11
1 3 5 8 4 1 3 6 2 1 3 4 7 6 2 5 9 5 8 8 10 13 15 17 20 18 23 24 21 16 22 15 10 10 10 9 6 7 7 8 7 8 12 12
0 4 8 6 5 1 1 3 4 3 3 2 6 4 5 5 6 11 8 8 6 9 12 16 16 13 22 34 35 27 24 18 12 10 10 9 8 7 6 6 7 8 10 10
2 2 2 2 4 2 8 2 4 2 0 3 3 3 4 5 6 9 8 8 10 11 12 9 6 20 25 29 33 24 20 15 13 11 9 10 8 6 7 7 7 8 7 8
1 2 3 2 2 4 1 1 2 3 4 5 2 3 6 7 5 7 10 11 12 12 13 6 8 14 19 26 26 24 14 12 15 12 11 10 8 8 8 7 6 7 9 8
1 3 2 1 2 1 2 1 2 4 5 8 1 3 4 3 7 5 6 7 12 14 13 8 3 9 15 21 22 17 10 11 13 14 13 11 9 7 7 5 7 9 8 9
5 4 1 3 1 2 4 2 3 4 0 3 2 4 8 3 5 4 6 10 13 13 13 9 3 5 10 14 19 12 9 10 13 14 13 13 11 10 8 8 9 9 10 11
5 4 0 1 1 8 1 6 1 1 3 8 4 4 6 4 8 8 5 9 10 10 11 9 4 2 6 9 13 9 9 9 10 13 14 14 11 11 11 12 11 12 13 14
5 3 2 2 4 1 3 2 4 1 2 4 4 6 4 5 7 7 4 6 8 9 8 6 4 2 5 8 12 11 7 3 6 11 14 14 14 12 13 13 13 15 16 17
2 3 3 1 2 2 1 1 2 2 2 1 3 4 3 4 3 3 4 5 5 5 4 3 3 3 6 8 11 12 11 8 4 6 10 14 13 13 14 15 15 15 18 19
7 1 2 4 4 3 2 2 3 4 1 5 3 5 1 3 4 4 5 6 5 4 5 3 1 2 3 6 8 10 12 11 8 6 8 9 10 11 13 13 14 15 17 20
5 3 1 0 2 1 2 0 2 1 2 2 5 10 7 4 4 1 3 4 6 8 9 8 6 1 2 2 4 5 7 8 8 6 5 6 4 7 8 9 11 15 17 18
2 3 0 2 2 0 4 4 3 5 4 5 4 6 10 6 3 1 2 2 4 10 10 12 9 5 4 5 5 5 5 5 7 6 5 1 5 8 9 9 11 13 15 13
2 3 1 0 3 2 5 4 3 5 3 9 9 11 3 2 1 4 4 1 7 5 8 11 9 7 5 7 6 5 5 5 6 2 2 4 6 8 10 10 10 10 9 9
1 4 2 2 2 2 4 4 3 2 3 3 6 5 7 3 2 2 0 3 4 5 6 8 6 5 6 5 5 7 8 8 4 3 4 6 7 7 7 7 7 7 8 9
3 3 1 2 1 4 2 2 4 6 5 4 8 6 5 5 5 5 4 5 5 1 6 6 6 5 6 6 7 9 7 5 3 5 6 7 7 6 6 7 7 8 9 10
2 3 2 2 3 4 3 1 2 2 5 7 5 8 7 3 6 3 7 5 4 3 4 8 8 8 9 9 6 7 6 6 6 7 8 8 7 6 7 7 8 8 8 10
5 5 1 2 2 3 2 1 2 2 4 4 6 10 7 4 6 4 9 6 6 3 4 9 12 11 11 8 7 8 8 8 8 7 6 6 5 5 7 7 7 7 8 9
2 2 1 2 2 3 2 1 1 3 3 8 5 8 6 4 3 11 10 8 5 5 7 8 11 13 10 8 6 9 7 8 4 4 5 5 5 6 6 7 8 7 8 8
1 1 1 1 2 2 3 2 3 3 4 6 5 3 3 5 11 11 12 9 9 9 11 10 11 14 10 7 7 8 6 5 3 4 5 7 5 5 5 8 9 8 8 9
1 1 1 4 2 1 3 6 3 6 6 5 5 5 6 8 12 13 11 10 6 14 13 10 11 13 9 7 5 6 4 3 3 4 6 5 4 4 6 7 7 7 8 9
3 3 3 2 1 5 6 7 6 5 8 9 9 7 7 11 13 13 9 5 8 11 11 10 11 13 9 6 5 6 5 5 5 7 5 3 2 4 5 6 7 7 8 9
1 6 3 5 9 9 1 2 2 5 8 8 7 8 7 9 8 7 5 1 8 12 12 10 9 11 9 5 5 5 6 6 6 6 4 2 2 3 5 5 5 6 6 6
6 5 4 6 1 2 6 4 6 10 9 7 4 5 4 4 2 1 2 6 9 8 13 9 9 10 8 5 5 6 7 6 7 5 4 2 3 2 2 3 2 2 2 3
Wind_Direction
45 240 341 336 243 279 253 258 280 270 352 250 260 276 291 289 236 239 236 236 241 243 253 252 213 194 181 181 206 209 240 253 236 238 262 282 264 259 262 261 260 274 289 310
224 264 354 301 258 194 197 262 329 224 44 218 294 285 303 302 283 261 244 239 244 252 252 241 215 195 189 181 192 212 257 280 261 251 266 268 294 275 264 264 260 263 278 285
309 312 342 358 83 35 188 296 201 287 132 102 320 276 333 303 300 286 249 249 255 263 272 255 227 197 183 173 171 24 294 273 261 254 270 273 280 273 270 266 263 260 273 277
234 306 345 355 27 345 15 336 260 87 315 350 353 342 341 340 322 292 288 276 283 279 278 274 268 217 182 162 168 165 237 242 239 244 247 252 258 268 271 273 259 263 279 280
283 304 345 333 353 239 21 118 87 54 57 290 6 287 20 334 342 344 2 40 3 351 344 319 310 196 176 174 185 196 206 220 212 231 238 244 251 267 275 274 270 273 289 294
278 296 254 291 58 60 145 78 58 80 294 8 338 316 337 335 324 316 348 22 19 17 359 7 85 157 174 182 192 198 211 211 206 216 233 240 252 262 269 274 282 284 300 287
289 273 281 215 184 122 65 18 349 351 359 354 336 261 288 304 307 307 333 5 24 29 13 48 131 165 179 186 197 207 201 193 210 213 229 239 244 256 268 272 289 292 290 290
202 206 223 171 252 134 95 206 347 335 349 343 178 288 352 306 316 310 316 19 35 29 22 35 123 177 188 196 198 200 195 199 209 213 224 234 235 236 252 274 285 284 280 295
176 248 294 1 136 286 145 200 85 113 134 285 341 274 274 320 331 334 344 24 35 26 25 44 94 195 196 204 205 193 205 206 214 217 224 232 231 238 251 265 276 277 284 289
193 239 193 164 145 60 280 129 190 120 303 319 312 279 315 337 339 350 335 14 30 37 39 43 39 231 219 214 201 209 215 238 230 219 225 234 236 246 254 258 269 278 289 294
145 207 175 218 212 239 160 180 68 85 302 295 305 324 202 272 318 318 329 11 10 28 36 51 69 208 222 209 196 197 185 214 223 222 230 240 247 253 257 263 276 281 291 296
161 146 199 234 48 306 46 85 180 312 284 230 300 278 172 259 316 302 340 344 12 28 41 70 99 175 210 223 207 207 206 217 232 240 241 248 254 261 265 274 279 289 296 302
178 60 159 157 156 128 81 119 113 100 105 210 274 327 186 272 262 237 315 349 357 13 39 57 185 209 244 236 226 219 227 232 247 276 254 253 262 274 284 285 290 298 303 307
95 104 97 293 67 326 294 68 130 144 240 175 250 310 321 305 252 13 295 321 347 35 30 36 52 110 169 189 206 217 224 223 235 251 240 249 288 325 324 312 312 312 313 311
65 98 325 216 128 193 290 278 183 212 247 248 332 273 308 341 26 14 314 287 41 36 29 26 36 78 107 131 151 196 207 203 202 205 230 3 360 352 346 332 324 318 320 323
16 131 179 130 124 297 274 250 263 229 240 254 275 284 2 322 210 242 253 342 53 57 36 41 45 83 113 130 142 158 149 163 164 166 42 359 344 337 329 325 329 339 351 356
43 141 146 250 5 306 263 242 248 238 236 272 291 360 335 310 256 255 270 55 33 38 62 56 53 96 104 131 125 115 126 124 99 41 7 347 343 354 358 355 3 20 19 21
141 120 181 242 273 263 50 358 261 257 267 250 281 288 299 285 304 301 297 358 48 145 97 95 95 106 86 87 100 111 104 88 52 34 22 21 21 20 18 26 30 37 39 52
16 141 124 250 235 319 150 119 311 326 302 219 264 280 282 267 271 111 23 359 26 66 84 118 123 120 111 106 126 119 104 87 68 53 47 39 31 30 32 42 43 52 68 70
75 67 292 145 247 275 75 130 332 229 290 211 234 289 318 292 266 19 6 8 19 87 131 141 130 126 115 132 149 120 93 80 64 59 52 34 30 44 64 61 61 72 77 74
21 18 56 142 253 280 252 228 297 248 356 344 294 310 329 287 324 309 306 269 284 202 166 151 138 127 124 126 127 94 89 78 69 59 49 48 62 79 72 61 74 82 71 58
13 15 90 135 257 280 160 195 236 20 326 325 309 292 288 296 308 330 325 284 263 197 159 164 143 120 114 121 123 112 99 96 75 61 74 81 73 68 61 83 88 74 51 32
215 266 328 224 294 334 212 269 302 309 295 288 269 234 244 282 296 305 305 305 267 175 163 158 144 124 116 115 115 122 118 121 108 97 99 82 69 74 96 96 84 61 41 23
212 176 244 272 95 259 275 274 271 266 262 268 257 252 270 280 292 299 310 289 176 157 139 148 146 123 117 109 116 130 134 140 128 119 91 61 75 113 107 100 87 63 36 20
56 153 216 251 275 285 241 222 298 298 299 286 265 257 273 301 299 303 333 131 153 151 145 161 163 129 122 127 143 145 152 149 146 128 109 87 139 143 132 114 100 70 49 27
187 198 210 269 238 251 290 336 299 311 330 336 279 281 291 290 279 296 105 141 158 169 149 159 144 129 125 146 156 155 165 168 163 152 143 152 160 182 181 169 144 35 23 351